Wind_Speed
27 28 28 29 29 30 30 31 31 32 33 33 34 34 35 36 38 39 40 41 42 42 43 43 44 46 48 49 50 50 51 51 52 52 52 53 55 56 57 57 58 60 60
26 26 27 28 28 29 29 29 29 30 31 31 32 32 33 34 35 36 38 38 39 40 41 41 42 43 44 45 47 49 50 51 52 52 52 53 54 55 57 58 60 61 61
23 24 25 26 26 27 27 28 28 29 30 30 30 31 32 32 33 35 36 36 37 38 39 40 41 42 42 43 45 46 48 50 51 52 52 54 55 56 58 59 59 60 61
21 22 23 23 24 25 26 27 27 28 28 28 28 29 30 30 32 33 34 35 36 37 38 39 40 41 42 44 45 47 49 50 50 51 52 53 54 55 56 57 58 59 60
21 22 22 23 24 25 26 26 27 26 26 27 27 28 29 30 31 33 34 35 35 36 37 38 40 41 42 44 45 46 48 49 50 51 52 53 53 54 55 56 57 57 58
22 22 23 24 25 25 26 26 26 27 27 28 29 29 30 31 32 33 34 34 34 35 36 37 39 40 41 43 44 46 47 47 49 51 52 53 53 54 55 56 56 56 56
22 23 24 24 25 26 26 27 27 27 28 29 30 31 32 33 34 34 35 35 35 36 37 38 40 41 43 44 45 46 47 48 49 50 50 52 53 54 55 55 55 55 56
22 23 23 24 24 25 26 27 28 29 30 31 32 32 33 34 35 36 36 36 37 37 38 39 40 41 42 44 45 45 46 47 48 49 50 51 51 52 53 54 55 56 57
24 24 24 25 26 26 27 28 29 30 31 32 32 33 34 35 36 37 37 37 37 38 39 39 40 41 42 43 43 44 45 46 47 49 50 51 51 52 53 54 55 56 57
26 27 27 27 28 28 28 29 30 31 32 33 34 35 36 36 37 37 38 38 38 38 39 40 41 42 43 43 44 44 45 46 47 48 50 51 52 53 54 54 55 56 56
28 29 29 29 29 30 30 31 32 33 33 34 35 36 37 37 38 38 38 38 38 39 40 41 42 43 44 44 44 45 46 46 46 48 49 50 52 53 53 54 55 55 55
31 31 31 32 32 32 33 33 34 34 35 35 36 37 38 38 38 39 39 39 40 41 41 42 43 43 43 43 44 45 46 46 47 48 49 50 51 52 53 53 54 54 54
33 33 34 34 34 34 35 35 35 35 36 37 38 39 39 39 40 40 40 41 41 42 42 43 43 43 43 44 45 45 46 47 48 48 49 50 51 51 51 51 52 52 51
35 35 36 36 36 36 36 36 37 37 38 38 39 39 40 40 41 41 41 42 42 43 43 43 44 44 44 45 46 46 47 48 48 48 48 49 49 49 49 50 51 51 51
36 36 37 37 37 37 37 38 38 39 39 40 40 41 41 42 42 42 42 43 43 43 43 43 44 44 45 46 46 47 48 48 48 48 48 48 48 49 49 49 50 51 50
37 37 37 37 37 37 38 39 39 39 40 41 41 42 43 43 43 43 43 43 43 43 44 44 45 45 45 45 45 46 46 46 46 46 47 47 47 47 47 47 47 47 46
37 37 37 37 37 37 38 39 39 40 41 42 43 44 44 43 43 43 43 43 44 44 45 45 46 45 45 45 44 44 44 45 45 45 45 44 43 43 43 42 41 41 40
37 37 36 36 37 38 38 39 40 40 42 43 44 44 43 43 43 43 43 44 44 44 44 45 44 44 44 43 43 43 43 43 43 42 41 40 40 40 39 38 37 36 34
37 37 37 37 37 38 39 39 40 41 42 43 44 44 43 42 42 42 43 43 43 43 43 43 42 42 42 42 41 41 41 40 39 38 37 37 37 37 36 35 33 32 31
36 37 37 37 38 39 39 40 41 42 43 43 43 42 41 41 41 41 42 41 41 41 41 41 41 41 40 40 38 38 37 36 35 35 35 35 34 33 32 31 30 29 28
37 37 37 38 38 39 40 40 41 41 42 42 42 41 40 40 40 40 40 40 39 39 40 40 40 39 38 37 36 35 34 34 33 33 33 32 31 30 29 28 27 26 26
38 38 38 38 39 39 40 40 40 40 41 40 40 39 39 39 39 39 39 39 39 39 39 39 39 37 35 34 33 32 32 32 31 31 31 30 28 27 27 26 25 24 23
37 37 37 37 38 38 38 38 39 39 39 39 38 38 38 38 38 38 38 38 38 38 38 37 36 34 33 31 31 32 32 32 31 30 29 27 26 26 25 24 24 22 21
36 36 36 37 37 37 38 38 39 38 38 38 37 37 37 37 37 37 37 37 37 37 35 34 33 32 31 31 32 32 32 31 30 28 27 26 26 25 23 22 21 20 19
36 36 36 36 37 37 38 38 38 38 37 37 37 37 37 37 37 37 36 36 36 34 34 33 32 32 32 32 32 32 31 29 28 27 26 25 24 22 20 19 18 17 17
35 36 36 36 37 37 37 37 37 37 36 36 36 36 36 36 36 36 35 35 33 33 32 32 32 31 31 31 31 30 29 28 27 26 24 22 21 19 18 17 16 16 15
Wind_Direction
280 280 280 281 282 283 284 283 282 281 281 282 283 282 281 281 280 280 281 280 278 277 276 274 272 269 268 268 267 267 267 267 267 267 267 267 266 266 264 263 262 262 262
283 283 283 283 284 285 285 286 285 285 286 286 285 284 285 285 284 284 283 282 280 278 277 277 275 273 270 269 268 268 268 268 268 268 268 268 268 267 266 265 265 264 263
286 285 286 286 287 287 287 288 288 289 289 288 288 288 288 288 289 288 287 285 283 282 279 277 276 274 273 271 271 270 270 270 270 270 270 270 269 269 267 267 266 265 264
291 289 288 289 289 289 289 291 291 292 292 291 290 291 291 291 292 292 291 289 286 283 280 278 277 276 274 274 273 272 271 272 272 272 272 272 271 270 269 268 267 267 266
294 293 291 290 291 292 293 293 292 292 292 293 293 294 295 295 295 295 294 291 288 286 283 280 279 279 277 276 276 275 274 274 273 274 274 274 272 271 270 269 268 267 266
294 294 293 292 292 293 294 295 294 293 293 293 293 294 295 296 296 296 295 293 291 287 285 283 282 281 280 279 279 278 277 276 276 275 274 273 273 273 272 270 269 267 267
295 295 296 296 296 296 295 295 295 295 295 294 294 294 295 295 296 296 296 294 293 290 288 286 285 284 283 283 283 282 280 279 278 277 276 275 275 274 273 272 270 268 267
295 297 298 299 299 299 298 298 297 297 297 297 297 297 298 298 298 298 297 296 294 292 290 289 288 287 286 285 284 283 282 281 280 279 279 278 277 276 274 273 271 270 270
297 298 299 300 301 301 301 301 300 300 299 299 299 299 300 300 300 300 299 298 295 293 292 291 290 290 289 288 287 286 285 284 282 281 281 280 279 278 277 275 273 272 271
297 298 299 300 301 301 301 302 303 302 302 302 302 302 301 301 301 301 300 298 296 295 294 293 292 292 291 290 289 288 287 287 286 284 283 282 282 281 280 278 277 275 273
296 297 299 300 300 301 302 302 302 303 303 303 303 303 303 302 302 301 301 300 298 297 296 295 294 293 291 291 290 290 289 289 288 287 286 285 284 283 282 280 279 278 276
295 296 297 298 299 299 300 301 302 302 302 303 303 303 303 303 302 302 301 300 299 298 297 296 296 295 293 292 291 291 291 291 290 289 288 287 286 284 283 282 280 280 278
293 293 294 296 297 297 298 299 300 301 302 302 302 303 303 303 302 302 301 300 300 299 298 297 297 296 294 294 293 293 293 292 291 290 289 288 287 286 284 283 282 281 279
292 292 293 295 295 296 296 297 298 299 300 301 302 302 302 303 302 302 301 301 301 301 300 300 299 298 297 296 296 295 294 293 292 291 291 290 288 287 286 284 283 282 281
291 292 293 294 294 295 295 297 298 299 300 300 301 302 302 303 303 302 302 301 302 302 302 302 301 300 299 298 297 296 296 295 294 293 292 292 290 288 287 286 285 285 283
291 291 292 293 294 295 296 297 298 299 301 301 302 302 302 302 302 302 302 302 302 303 303 303 302 301 300 299 299 299 298 298 297 295 294 294 292 291 289 288 287 286 284
290 291 292 292 294 295 297 298 299 301 302 302 303 303 303 303 303 303 303 303 304 304 303 304 303 302 301 300 300 301 301 301 300 299 297 296 295 294 292 291 290 288 286
290 290 291 292 294 296 297 299 300 301 302 303 304 304 304 304 305 305 305 305 305 305 305 305 305 304 303 302 302 302 302 303 303 302 300 299 298 297 295 294 293 290 287
290 290 291 292 294 296 298 299 301 302 303 304 304 304 304 305 305 305 306 306 307 307 308 308 307 306 306 305 304 304 304 305 305 304 303 302 302 301 299 297 295 292 288
289 290 291 293 295 297 298 300 301 303 304 304 304 304 305 305 306 307 307 308 309 309 309 310 309 309 309 308 307 307 307 308 308 307 307 306 305 304 303 300 297 294 290
289 290 291 293 295 297 299 300 302 303 304 305 305 305 305 306 307 308 308 309 310 310 311 311 311 311 311 310 310 309 309 309 309 309 309 308 307 307 306 304 301 297 293
288 289 291 293 296 297 299 301 302 304 305 305 305 305 306 307 307 308 309 309 310 311 312 312 313 312 312 312 312 312 312 312 311 311 311 310 310 309 309 308 307 302 297
289 290 292 295 296 297 299 301 303 304 305 305 306 306 306 307 307 308 309 310 311 312 313 314 314 313 313 314 314 314 314 313 312 312 312 312 312 311 310 310 309 306 300
290 291 293 295 297 298 299 301 303 304 305 305 306 306 306 307 308 309 309 310 311 312 313 314 314 313 313 314 315 315 315 315 313 313 312 311 312 312 311 310 310 308 304
290 291 293 296 297 298 300 302 303 303 304 305 305 306 307 307 308 308 308 309 310 312 313 314 314 314 314 314 315 316 316 316 315 314 313 312 312 312 312 311 311 310 308
290 292 295 297 298 299 300 302 302 303 304 305 306 306 307 308 308 308 308 309 309 310 312 313 313 314 315 315 316 316 316 316 315 315 314 313 312 312 313 313 313 312 311
Height
5668 5667 5666 5665 5663 5661 5659 5657 5655 5653 5651 5649 5647 5645 5644 5642 5640 5638 5636 5634 5632 5631 5629 5628 5627 5627 5627 5627 5628 5629 5629 5630 5632 5635 5635 5635 5636 5637 5637 5638 5639 5641 5643
5662 5661 5660 5658 5656 5654 5652 5650 5648 5646 5644 5642 5639 5637 5635 5633 5631 5629 5627 5624 5622 5620 5619 5618 5617 5616 5616 5615 5616 5616 5616 5617 5618 5619 5620 5620 5621 5621 5622 5622 5623 5624 5626
5657 5655 5654 5652 5650 5648 5646 5644 5641 5639 5637 5634 5632 5630 5628 5625 5623 5620 5618 5615 5613 5610 5608 5607 5606 5605 5605 5604 5604 5604 5604 5603 5603 5604 5605 5605 5605 5605 5605 5605 5606 5607 5608
5651 5650 5648 5646 5644 5642 5640 5637 5635 5633 5630 5627 5625 5623 5620 5618 5615 5612 5609 5607 5604 5601 5599 5597 5596 5595 5594 5593 5592 5592 5591 5590 5590 5589 5589 5589 5589 5588 5588 5588 5589 5589 5590
5646 5644 5643 5640 5638 5636 5634 5631 5629 5626 5624 5621 5619 5616 5613 5611 5608 5605 5601 5598 5595 5592 5590 5588 5586 5584 5583 5582 5580 5579 5578 5577 5576 5575 5574 5574 5573 5572 5572 5571 5572 5572 5573
5641 5639 5637 5635 5632 5630 5627 5625 5622 5620 5617 5615 5612 5609 5606 5603 5600 5596 5593 5590 5587 5584 5581 5578 5576 5574 5572 5570 5568 5566 5564 5563 5562 5560 5559 5558 5557 5556 5555 5554 5554 5555 5557
5636 5634 5631 5629 5626 5624 5621 5619 5616 5613 5611 5608 5605 5602 5599 5595 5592 5588 5584 5581 5578 5574 5571 5568 5566 5563 5560 5558 5555 5553 5551 5549 5547 5545 5544 5542 5541 5540 5538 5538 5537 5536 5538
5630 5628 5626 5623 5620 5618 5615 5612 5609 5606 5604 5600 5597 5594 5590 5587 5583 5579 5575 5572 5568 5565 5561 5558 5555 5552 5549 5546 5543 5540 5537 5535 5533 5531 5529 5527 5524 5522 5520 5520 5519 5519 5519
5625 5623 5620 5617 5615 5612 5609 5605 5602 5599 5596 5593 5589 5585 5582 5578 5574 5570 5566 5562 5558 5555 5551 5548 5544 5541 5537 5534 5531 5528 5525 5521 5518 5515 5513 5510 5508 5506 5504 5502 5501 5501 5501
5619 5617 5614 5611 5608 5605 5602 5599 5595 5592 5588 5584 5581 5577 5573 5569 5564 5560 5556 5552 5549 5545 5541 5537 5533 5529 5525 5521 5518 5515 5511 5508 5504 5500 5497 5494 5491 5489 5486 5484 5483 5482 5482
5613 5610 5607 5604 5601 5598 5595 5591 5588 5584 5580 5576 5572 5568 5564 5559 5555 5550 5546 5542 5538 5534 5530 5526 5521 5517 5513 5509 5505 5501 5498 5494 5490 5486 5482 5478 5475 5472 5469 5466 5464 5463 5462
5605 5602 5599 5596 5593 5590 5587 5583 5579 5576 5571 5567 5563 5559 5554 5550 5545 5541 5536 5532 5527 5523 5518 5514 5509 5504 5500 5496 5492 5488 5484 5480 5476 5471 5467 5463 5459 5456 5452 5449 5447 5445 5443
5597 5594 5591 5588 5585 5582 5578 5575 5571 5567 5563 5559 5554 5549 5545 5540 5535 5530 5525 5521 5516 5511 5506 5501 5496 5492 5487 5483 5478 5474 5470 5466 5461 5457 5453 5448 5444 5440 5436 5433 5430 5428 5426
5588 5585 5582 5579 5576 5573 5569 5566 5562 5558 5553 5549 5544 5540 5535 5530 5525 5520 5515 5510 5505 5500 5494 5489 5484 5479 5474 5470 5465 5460 5456 5451 5446 5442 5438 5433 5429 5425 5421 5418 5415 5412 5410
5579 5576 5573 5569 5566 5563 5559 5556 5552 5548 5544 5539 5534 5529 5524 5519 5514 5508 5503 5498 5492 5487 5482 5477 5472 5467 5462 5456 5451 5446 5441 5436 5432 5427 5422 5418 5414 5410 5406 5402 5399 5396 5394
5569 5566 5563 5560 5556 5553 5549 5546 5542 5538 5533 5529 5524 5519 5513 5508 5502 5497 5491 5486 5480 5475 5470 5464 5459 5454 5448 5443 5438 5433 5427 5422 5417 5413 5408 5403 5399 5395 5391 5387 5384 5381 5378
5558 5555 5552 5550 5546 5543 5540 5536 5531 5527 5522 5518 5513 5507 5502 5496 5490 5485 5480 5474 5468 5463 5457 5452 5446 5441 5435 5430 5425 5420 5415 5409 5404 5399 5394 5390 5385 5381 5377 5374 5370 5367 5364
5548 5545 5542 5539 5536 5533 5529 5525 5521 5517 5512 5507 5501 5496 5490 5485 5479 5474 5468 5463 5457 5451 5445 5440 5434 5428 5423 5417 5412 5407 5402 5397 5392 5387 5382 5377 5373 5369 5365 5362 5358 5355 5352
5537 5535 5532 5529 5526 5522 5519 5515 5511 5506 5501 5496 5490 5485 5479 5474 5468 5463 5457 5452 5446 5440 5434 5428 5422 5417 5411 5406 5401 5396 5391 5386 5381 5376 5371 5367 5362 5358 5354 5351 5347 5344 5342
5527 5524 5522 5519 5515 5512 5508 5504 5500 5495 5490 5485 5479 5474 5469 5463 5458 5452 5447 5441 5435 5430 5424 5418 5412 5406 5401 5395 5390 5385 5381 5376 5371 5366 5362 5357 5353 5349 5345 5341 5338 5335 5333
5517 5514 5511 5508 5505 5501 5497 5493 5489 5484 5479 5474 5469 5463 5458 5453 5448 5442 5437 5431 5426 5420 5414 5409 5403 5397 5392 5386 5381 5377 5372 5367 5363 5358 5354 5349 5345 5341 5337 5333 5330 5327 5325
5506 5503 5500 5497 5494 5490 5486 5482 5478 5473 5468 5463 5458 5453 5448 5443 5438 5433 5428 5422 5417 5411 5405 5400 5394 5388 5383 5378 5374 5369 5364 5360 5355 5351 5346 5342 5338 5334 5330 5327 5323 5320 5318
5495 5492 5489 5486 5483 5479 5475 5471 5467 5462 5458 5453 5448 5443 5439 5434 5429 5424 5419 5413 5408 5402 5397 5391 5386 5381 5376 5371 5367 5362 5357 5353 5348 5344 5340 5335 5332 5328 5324 5321 5317 5314 5312
5484 5481 5478 5475 5472 5469 5465 5461 5456 5452 5448 5443 5439 5434 5429 5425 5420 5415 5410 5405 5399 5394 5389 5383 5378 5374 5369 5364 5360 5355 5350 5345 5341 5337 5333 5329 5326 5322 5319 5316 5313 5310 5307
5473 5471 5468 5465 5461 5458 5454 5450 5446 5442 5438 5434 5429 5425 5420 5415 5411 5406 5401 5396 5391 5386 5381 5376 5372 5367 5362 5357 5353 5348 5343 5339 5335 5331 5327 5323 5320 5317 5314 5311 5309 5306 5304
5463 5460 5457 5454 5451 5447 5444 5440 5436 5432 5428 5424 5420 5415 5411 5407 5402 5397 5392 5388 5383 5379 5374 5369 5365 5360 5355 5351 5346 5342 5337 5333 5329 5325 5321 5318 5315 5312 5310 5308 5305 5303 5301